Погода Столб Остров

Погода Столб Остров : погода сейчас, прогноз погоды и архив. Всё, что Вы хотите узнать о погоде Столб Остров!

Поиск расширенной информации на нашем сайте:

Другие новости

Новости СМИ2

Главная страница сайта

Новости сайта

03.07.2017

Напоминаем, что на нашем специализированном сайте Метеоцентр.Азия вы можете получить высокодетализированные автоматические прогнозы погоды по пунктам России, СНГ и мира в авиационном формате (включающие направление и скорость ветра, видимость, явления погоды, количество и форму облачности, нижнюю и верхнюю границу облачности).


Погода Столб Остров - сегодня

Время (UTC), дата Ветер
(°,м/с) 
Видим.   Явления Облачность Т
(°С)
Тd
(°С)
f(%) Тe
(°С)
Pmin
(гПа)
dP
(гПа)
Po
(мм)
O2
(г/м3)
Тmin Tmax R s Состояние
почвы
06 21.11.17 050 (СВ) 8-10{12}  4000 м  слаб. снег  10/10 300 м 
[Ns]
-9.3 -10 95 -16  1012.9  1.1  758  317           
09 21.11.17 020 (С) 10-12{14}  4000 м  слаб. снег  10/10 300 м 
[Ns]
-12.7 -13.3 95 -21  1016  3.1  760  322           
12 21.11.17 020 (С) 8-10{14}  4000 м  слаб. снег  10/10 300 м 
[Ns]
-15.5 -16.1 95 -23  1018.5  2.5  762  327    -9.1     
15 21.11.17 350 (С) 3{10}  20000 м  {снег}  4/0 верхняя 
[Ci fib]
-16.8 -18.1 90 -21  1020.1  1.5  763  329           
18 21.11.17 360 (С) 7{11}  20000 м  позёмок{снег}  10/0 верхняя 
[Ci fib]
-16.7 -18 90 -24  1021.2  1.1  764  329           
21 21.11.17 350 (С) 7{13}  20000 м  позёмок  10/0 верхняя 
[Ci fib]
-19.7 -19.3 100 -28  1023.1  1.9  765  334           
00 22.11.17 350 (С) 20000 м  позёмок  1/0 верхняя 
[Ci fib]
-19.6 -20.2 95 -27  1024.4  1.3  766  334  -19.6    0.0  25  неравномерный
сухой снег
100% 
03 22.11.17 350 (С) 20000 м    8/8 600 м 
[Sc]
-20 -20.6 95 -26  1025.4  767  335  -20.9         
06 22.11.17 350 (С) 7{11}  20000 м  позёмок  10/10 600 м 
[Sc]
-17.6 -18.2 95 -25  1026.6  1.2  768  332           
09 22.11.17 340 (С) 8{12}  10 км  слаб. снег  10/10 600 м 
[Sc]
-20 -20.6 95 -29  1027.7  1.1  769  336           
12 22.11.17 340 (С) 8{12}  10 км  слаб. снег  10/10 600 м 
[Sc]
-21.4 -22 95 -30  1028.6  0.9  769  338    -17.6  0.0     
15 22.11.17 330 (СЗ) 7{11}  10 км  слаб. снег  10/10 600 м 
[Sc]
-23.4 -24 95 -32  1028.8  0.1  770  341           
18 22.11.17 320 (СЗ) 8{12}  10 км  слаб. снег  10/10 600 м 
[Sc]
-22.2 -22.9 94 -31  1029.1  0.3  770  339           
21 22.11.17 320 (СЗ) 7{10}  20000 м  позёмок{снег}  10/10 600 м 
[Sc]
-21.9 -23.2 89 -30  1028.5  -0.5  769  339           
00 23.11.17 330 (СЗ) 6{11}  20000 м  позёмок{снег}  10/10 1000 м 
[Sc]
-22 -23.3 89 -30  1028.8  0.3  770  339  -23.7    0.2  25  неравномерный
сухой снег
100% 
03 23.11.17 310 (СЗ) 7{11}  20000 м  позёмок  10/3 1000 м верхняя 
[Sc|Ci fib]
-25.2 -26.4 90 -34  1029.8  0.9  770  344  -25.2         
06 23.11.17 270 (З) 20000 м    10/10 1000 м 
[Sc]
-24 -25.2 90 -30  1030.1  0.3  770  342           
09 23.11.17 270 (З) 10 км  слаб. снег  10/10 600 м 
[Sc]
-21.9 -23.2 89 -28  1029.9  -0.1  770  339           
12 23.11.17 290 (З) 20000 м  {снег}  10/10 600 м 
[Sc]
-24.1 -25.4 89 -31  1030.5  0.5  771  342    -21.6  0.0     
15 23.11.17 290 (З) 20000 м    10/10 600 м 
[Sc]
-25.7 -26.8 90 -33  1030  -0.5  770  345           
18 23.11.17 290 (З) 20000 м    10/10 600 м 
[Sc]
-23.7 -25 89 -31  1029.7  -0.3  770  342           
21 23.11.17 290 (З) 20000 м    10/10 1000 м 
[Sc]
-24.6 -25.9 89 -31  1029.3  -0.4  770  343           
00 24.11.17 290 (З) 20000 м    4/0 верхняя 
[Ci fib]
-24 -25.9 84 -29  1028.7  -0.5  770  342  -26.5      25  неравномерный
сухой снег
100% 
03 24.11.17 290 (З) 10 км  слаб. снег  10/0 средняя 
[Ac As]
-21.6 -22.8 90 -28  1027.7  -1  769  338           
06 24.11.17 290 (З) 7{11}  10 км  слаб. снег  10/10 1000 м 
[Sc]
-23.1 -24.4 89 -32  1027.4  -0.4  768  340           
Время (UTC), дата Ветер
(°,м/с) 
Видим.   Явления Облачность Т
(°С)
Тd
(°С)
f(%) Тe
(°С)
Pmin
(гПа)
dP
(гПа)
Po
(мм)
O2
(г/м3)
Тmin Tmax R s Состояние
почвы

Для получения пояснительной информации подведите курсор к названию столбца.

ПОГОДА Столб Остров - архив

Всё, что Вы хотите узнать о погоде Столб Остров - удобно и подробно!

Выберите нужную дату (начиная с 1 января 2015* года) и нажмите кнопку "Найти".
Будут отображены архивные сводки погоды по пункту Столб Остров, начиная с указанной даты.


Отображать данные в формате CSV (для использования в таблицах Excel)


Внимание! Наш архив погоды предназначен исключительно для личного некоммерческого использования в познавательных целях. Если Вам необходимы официальные справки о состоянии погоды (для производственных, юридических, коммерческих и т.п. целей), обращайтесь в органы Росгидромета.

*Примечание: данная дата относится к архиву по метеостанциям СССР (Россия, СНГ, Балтия).
Архив по метеостанциям Зарубежной Европы и Азии (кроме Китая) хранится 10 дней, по другим регионам земного шара (Китай, Африка, Америка, Австралия, Океания) - 1 день.

Столб Остров - район местоположения метеостанции


Название, широта, долгота, высота метеостанции:
Столб Остров 72.4°ш. 126.5°д. 26 м над ур. моря [Российская Федерация]

Дополнительная информация

В oтличие oт бoльшинства пoгoдных сайтoв мы публикуем пoдрoбную метеoинфoрмацию в детальнoм прoфессиoнальнoм фoрмате.

Характеристики температуры и влажнoсти вoздуха измеряются на высoте 2 м в тени вдали oт зданий и деревьев.
Скoрoсть ветра измеряется на высoте 10 м (на урoвне рoста челoвека скoрoсть ветра ниже в 1.5-2 раза). Если метеoстанция нахoдится в гoрoде или в лесу, тo скoрoсть ветра занижена на 2-4 м/с пo сравнению с oткрытым местoм. Скoрoсть ветра над акватoриями крупных рек и oзёр, а также на вершинах хoлмoв на 2-5 м/с выше, чем в oбычных услoвиях.
Атмoсфернoе давление в разных тoчках местнoсти мoжет значительнo oтличаться oт давления на метеoстанции, в зависимoсти oт услoвий рельефа (при пoдъёме на 10 м давление пoнижается примернo на 1 мм рт.ст.).